Year,Month,Day,Hour,Minute,Value (Times are PST for temperature in C)
2018,04,27,00,00,8.60
2018,04,27,00,01,8.60
2018,04,27,00,02,8.60
2018,04,27,00,03,8.60
2018,04,27,00,04,8.60
2018,04,27,00,05,8.50
2018,04,27,00,06,8.50
2018,04,27,00,07,8.50
2018,04,27,00,08,8.50
2018,04,27,00,09,8.40
2018,04,27,00,10,8.40
2018,04,27,00,11,8.40
2018,04,27,00,12,8.40
2018,04,27,00,13,8.30
2018,04,27,00,14,8.30
2018,04,27,00,15,8.30
2018,04,27,00,16,8.30
2018,04,27,00,17,8.30
2018,04,27,00,18,8.20
2018,04,27,00,19,8.20
2018,04,27,00,20,8.20
2018,04,27,00,21,8.20
2018,04,27,00,22,8.20
2018,04,27,00,23,8.20
2018,04,27,00,24,8.20
2018,04,27,00,25,8.20
2018,04,27,00,26,8.20
2018,04,27,00,27,8.20
2018,04,27,00,28,8.20
2018,04,27,00,29,8.20
2018,04,27,00,30,8.20
2018,04,27,00,31,8.20
2018,04,27,00,32,8.10
2018,04,27,00,33,8.10
2018,04,27,00,34,8.10
2018,04,27,00,35,8.10
2018,04,27,00,36,8.10
2018,04,27,00,37,8.10
2018,04,27,00,38,8.10
2018,04,27,00,39,8.00
2018,04,27,00,40,8.00
2018,04,27,00,41,7.90
2018,04,27,00,42,7.90
2018,04,27,00,43,7.90
2018,04,27,00,44,7.90
2018,04,27,00,45,7.90
2018,04,27,00,46,7.90
2018,04,27,00,47,7.90
2018,04,27,00,48,7.80
2018,04,27,00,49,7.80
2018,04,27,00,50,7.80
2018,04,27,00,51,7.80
2018,04,27,00,52,7.80
2018,04,27,00,53,7.90
2018,04,27,00,54,7.90
2018,04,27,00,55,7.90
2018,04,27,00,56,7.90
2018,04,27,00,57,7.90
2018,04,27,00,58,7.90
2018,04,27,00,59,7.90
2018,04,27,01,00,7.90
2018,04,27,01,01,7.90
2018,04,27,01,02,7.90
2018,04,27,01,03,7.90
2018,04,27,01,04,7.90
2018,04,27,01,05,7.90
2018,04,27,01,06,7.80
2018,04,27,01,07,7.80
2018,04,27,01,08,7.70
2018,04,27,01,09,7.70
2018,04,27,01,10,7.60
2018,04,27,01,11,7.60
2018,04,27,01,12,7.60
2018,04,27,01,13,7.50
2018,04,27,01,14,7.50
2018,04,27,01,15,7.50
2018,04,27,01,16,7.50
2018,04,27,01,17,7.50
2018,04,27,01,18,7.40
2018,04,27,01,19,7.40
2018,04,27,01,20,7.40
2018,04,27,01,21,7.40
2018,04,27,01,22,7.50
2018,04,27,01,23,7.50
2018,04,27,01,24,7.50
2018,04,27,01,25,7.50
2018,04,27,01,26,7.40
2018,04,27,01,27,7.40
2018,04,27,01,28,7.40
2018,04,27,01,29,7.40
2018,04,27,01,30,7.40
2018,04,27,01,31,7.40
2018,04,27,01,32,7.30
2018,04,27,01,33,7.30
2018,04,27,01,34,7.30
2018,04,27,01,35,7.30
2018,04,27,01,36,7.30
2018,04,27,01,37,7.30
2018,04,27,01,38,7.20
2018,04,27,01,39,7.20
2018,04,27,01,40,7.20
2018,04,27,01,41,7.20
2018,04,27,01,42,7.20
2018,04,27,01,43,7.20
2018,04,27,01,44,7.20
2018,04,27,01,45,7.20
2018,04,27,01,46,7.20
2018,04,27,01,47,7.20
2018,04,27,01,48,7.20
2018,04,27,01,49,7.20
2018,04,27,01,50,7.20
2018,04,27,01,51,7.20
2018,04,27,01,52,7.20
2018,04,27,01,53,7.10
2018,04,27,01,54,7.10
2018,04,27,01,55,7.10
2018,04,27,01,56,7.10
2018,04,27,01,57,7.10
2018,04,27,01,58,7.10
2018,04,27,01,59,7.10
2018,04,27,02,00,7.10
2018,04,27,02,01,7.20
2018,04,27,02,02,7.20
2018,04,27,02,03,7.10
2018,04,27,02,04,7.10
2018,04,27,02,05,7.10
2018,04,27,02,06,7.10
2018,04,27,02,07,7.10
2018,04,27,02,08,7.10
2018,04,27,02,09,7.10
2018,04,27,02,10,7.10
2018,04,27,02,11,7.10
2018,04,27,02,12,7.10
2018,04,27,02,13,7.10
2018,04,27,02,14,7.10
2018,04,27,02,15,7.10
2018,04,27,02,16,7.10
2018,04,27,02,17,7.10
2018,04,27,02,18,7.10
2018,04,27,02,19,7.10
2018,04,27,02,20,7.10
2018,04,27,02,21,7.10
2018,04,27,02,22,7.10
2018,04,27,02,23,7.10
2018,04,27,02,24,7.10
2018,04,27,02,25,7.10
2018,04,27,02,26,7.10
2018,04,27,02,27,7.00
2018,04,27,02,28,7.00
2018,04,27,02,29,7.00
2018,04,27,02,30,7.00
2018,04,27,02,31,7.00
2018,04,27,02,32,6.90
2018,04,27,02,33,6.90
2018,04,27,02,34,6.90
2018,04,27,02,35,6.90
2018,04,27,02,36,6.90
2018,04,27,02,37,6.90
2018,04,27,02,38,6.80
2018,04,27,02,39,6.80
2018,04,27,02,40,6.80
2018,04,27,02,41,6.80
2018,04,27,02,42,6.80
2018,04,27,02,43,6.80
2018,04,27,02,44,6.70
2018,04,27,02,45,6.80
2018,04,27,02,46,6.80
2018,04,27,02,47,6.80
2018,04,27,02,48,6.80
2018,04,27,02,49,6.80
2018,04,27,02,50,6.80
2018,04,27,02,51,6.80
2018,04,27,02,52,6.80
2018,04,27,02,53,6.80
2018,04,27,02,54,6.80
2018,04,27,02,55,6.80
2018,04,27,02,56,6.80
2018,04,27,02,57,6.80
2018,04,27,02,58,6.80
2018,04,27,02,59,6.80
2018,04,27,03,00,6.80
2018,04,27,03,01,6.80
2018,04,27,03,02,6.80
2018,04,27,03,03,6.80
2018,04,27,03,04,6.70
2018,04,27,03,05,6.70
2018,04,27,03,06,6.70
2018,04,27,03,07,6.70
2018,04,27,03,08,6.70
2018,04,27,03,09,6.70
2018,04,27,03,10,6.70
2018,04,27,03,11,6.70
2018,04,27,03,12,6.60
2018,04,27,03,13,6.60
2018,04,27,03,14,6.60
2018,04,27,03,15,6.60
2018,04,27,03,16,6.60
2018,04,27,03,17,6.50
2018,04,27,03,18,6.60
2018,04,27,03,19,6.60
2018,04,27,03,20,6.60
2018,04,27,03,21,6.60
2018,04,27,03,22,6.60
2018,04,27,03,23,6.60
2018,04,27,03,24,6.60
2018,04,27,03,25,6.60
2018,04,27,03,26,6.60
2018,04,27,03,27,6.60
2018,04,27,03,28,6.50
2018,04,27,03,29,6.50
2018,04,27,03,30,6.50
2018,04,27,03,31,6.50
2018,04,27,03,32,6.50
2018,04,27,03,33,6.40
2018,04,27,03,34,6.50
2018,04,27,03,35,6.50
2018,04,27,03,36,6.50
2018,04,27,03,37,6.50
2018,04,27,03,38,6.50
2018,04,27,03,39,6.50
2018,04,27,03,40,6.60
2018,04,27,03,41,6.60
2018,04,27,03,42,6.60
2018,04,27,03,43,6.60
2018,04,27,03,44,6.60
2018,04,27,03,45,6.60
2018,04,27,03,46,6.60
2018,04,27,03,47,6.60
2018,04,27,03,48,6.70
2018,04,27,03,49,6.80
2018,04,27,03,50,6.80
2018,04,27,03,51,6.90
2018,04,27,03,52,6.90
2018,04,27,03,53,7.00
2018,04,27,03,54,7.00
2018,04,27,03,55,7.00
2018,04,27,03,56,6.90
2018,04,27,03,57,6.90
2018,04,27,03,58,6.90
2018,04,27,03,59,6.80
2018,04,27,04,00,6.80
2018,04,27,04,01,6.80
2018,04,27,04,02,6.70
2018,04,27,04,03,6.70
2018,04,27,04,04,6.60
2018,04,27,04,05,6.60
2018,04,27,04,06,6.60
2018,04,27,04,07,6.60
2018,04,27,04,08,6.60
2018,04,27,04,09,6.60
2018,04,27,04,10,6.50
2018,04,27,04,11,6.50
2018,04,27,04,12,6.50
2018,04,27,04,13,6.50
2018,04,27,04,14,6.50
2018,04,27,04,15,6.50
2018,04,27,04,16,6.50
2018,04,27,04,17,6.50
2018,04,27,04,18,6.50
2018,04,27,04,19,6.40
2018,04,27,04,20,6.40
2018,04,27,04,21,6.40
2018,04,27,04,22,6.40
2018,04,27,04,23,6.40
2018,04,27,04,24,6.40
2018,04,27,04,25,6.40
2018,04,27,04,26,6.40
2018,04,27,04,27,6.40
2018,04,27,04,28,6.40
2018,04,27,04,29,6.50
2018,04,27,04,30,6.60
2018,04,27,04,31,6.60
2018,04,27,04,32,6.60
2018,04,27,04,33,6.50
2018,04,27,04,34,6.50
2018,04,27,04,35,6.50
2018,04,27,04,36,6.50
2018,04,27,04,37,6.50
2018,04,27,04,38,6.50
2018,04,27,04,39,6.50
2018,04,27,04,40,6.50
2018,04,27,04,41,6.50
2018,04,27,04,42,6.50
2018,04,27,04,43,6.50
2018,04,27,04,44,6.50
2018,04,27,04,45,6.60
2018,04,27,04,46,6.60
2018,04,27,04,47,6.60
2018,04,27,04,48,6.60
2018,04,27,04,49,6.70
2018,04,27,04,50,6.70
2018,04,27,04,51,6.70
2018,04,27,04,52,6.70
2018,04,27,04,53,6.70
2018,04,27,04,54,6.70
2018,04,27,04,55,6.70
2018,04,27,04,56,6.70
2018,04,27,04,57,6.70
2018,04,27,04,58,6.70
2018,04,27,04,59,6.70
2018,04,27,05,00,6.70
2018,04,27,05,01,6.70
2018,04,27,05,02,6.60
2018,04,27,05,03,6.60
2018,04,27,05,04,6.60
2018,04,27,05,05,6.60
2018,04,27,05,06,6.60
2018,04,27,05,07,6.60
2018,04,27,05,08,6.60
2018,04,27,05,09,6.60
2018,04,27,05,10,6.70
2018,04,27,05,11,6.70
2018,04,27,05,12,6.70
2018,04,27,05,13,6.70
2018,04,27,05,14,6.70
2018,04,27,05,15,6.70
2018,04,27,05,16,6.70
2018,04,27,05,17,6.70
2018,04,27,05,18,6.70
2018,04,27,05,19,6.70
2018,04,27,05,20,6.70
2018,04,27,05,21,6.70
2018,04,27,05,22,6.70
2018,04,27,05,23,6.70
2018,04,27,05,24,6.70
2018,04,27,05,25,6.70
2018,04,27,05,26,6.70
2018,04,27,05,27,6.70
2018,04,27,05,28,6.70
2018,04,27,05,29,6.70
2018,04,27,05,30,6.70
2018,04,27,05,31,6.70
2018,04,27,05,32,6.70
2018,04,27,05,33,6.70
2018,04,27,05,34,6.70
2018,04,27,05,35,6.70
2018,04,27,05,36,6.70
2018,04,27,05,37,6.70
2018,04,27,05,38,6.70
2018,04,27,05,39,6.70
2018,04,27,05,40,6.70
2018,04,27,05,41,6.80
2018,04,27,05,42,6.80
2018,04,27,05,43,6.80
2018,04,27,05,44,6.80
2018,04,27,05,45,6.80
2018,04,27,05,46,6.80
2018,04,27,05,47,6.80
2018,04,27,05,48,6.80
2018,04,27,05,49,6.80
2018,04,27,05,50,6.80
2018,04,27,05,51,6.80
2018,04,27,05,52,6.80
2018,04,27,05,53,6.90
2018,04,27,05,54,6.90
2018,04,27,05,55,6.90
2018,04,27,05,56,7.00
2018,04,27,05,57,7.00
2018,04,27,05,58,7.10
2018,04,27,05,59,7.10
2018,04,27,06,00,7.20
2018,04,27,06,01,7.20
2018,04,27,06,02,7.20
2018,04,27,06,03,7.20
2018,04,27,06,04,7.20
2018,04,27,06,05,7.20
2018,04,27,06,06,7.20
2018,04,27,06,07,7.20
2018,04,27,06,08,7.20
2018,04,27,06,09,7.20
2018,04,27,06,10,7.20
2018,04,27,06,11,7.20
2018,04,27,06,12,7.20
2018,04,27,06,13,7.20
2018,04,27,06,14,7.20
2018,04,27,06,15,7.20
2018,04,27,06,16,7.30
2018,04,27,06,17,7.30
2018,04,27,06,18,7.30
2018,04,27,06,19,7.30
2018,04,27,06,20,7.30
2018,04,27,06,21,7.30
2018,04,27,06,22,7.30
2018,04,27,06,23,7.30
2018,04,27,06,24,7.30
2018,04,27,06,25,7.30
2018,04,27,06,26,7.30
2018,04,27,06,27,7.40
2018,04,27,06,28,7.40
2018,04,27,06,29,7.40
2018,04,27,06,30,7.40
2018,04,27,06,31,7.40
2018,04,27,06,32,7.40
2018,04,27,06,33,7.40
2018,04,27,06,34,7.40
2018,04,27,06,35,7.40
2018,04,27,06,36,7.40
2018,04,27,06,37,7.40
2018,04,27,06,38,7.50
2018,04,27,06,39,7.50
2018,04,27,06,40,7.50
2018,04,27,06,41,7.50
2018,04,27,06,42,7.50
2018,04,27,06,43,7.50
2018,04,27,06,44,7.50
2018,04,27,06,45,7.50
2018,04,27,06,46,7.50
2018,04,27,06,47,7.60
2018,04,27,06,48,7.60
2018,04,27,06,49,7.60
2018,04,27,06,50,7.60
2018,04,27,06,51,7.60
2018,04,27,06,52,7.60
2018,04,27,06,53,7.60
2018,04,27,06,54,7.60
2018,04,27,06,55,7.60
2018,04,27,06,56,7.60
2018,04,27,06,57,7.60
2018,04,27,06,58,7.60
2018,04,27,06,59,7.60
2018,04,27,07,00,7.60
2018,04,27,07,01,7.60
2018,04,27,07,02,7.60
2018,04,27,07,03,7.60
2018,04,27,07,04,7.60
2018,04,27,07,05,7.70
2018,04,27,07,06,7.70
2018,04,27,07,07,7.70
2018,04,27,07,08,7.70
2018,04,27,07,09,7.70
2018,04,27,07,10,7.70
2018,04,27,07,11,7.70
2018,04,27,07,12,7.70
2018,04,27,07,13,7.70
2018,04,27,07,14,7.70
2018,04,27,07,15,7.70
2018,04,27,07,16,7.70
2018,04,27,07,17,7.70
2018,04,27,07,18,7.70
2018,04,27,07,19,7.70
2018,04,27,07,20,7.70
2018,04,27,07,21,7.70
2018,04,27,07,22,7.70
2018,04,27,07,23,7.80
2018,04,27,07,24,7.80
2018,04,27,07,25,7.80
2018,04,27,07,26,7.80
2018,04,27,07,27,7.80
2018,04,27,07,28,7.80
2018,04,27,07,29,7.80
2018,04,27,07,30,7.80
2018,04,27,07,31,7.80
2018,04,27,07,32,7.80
2018,04,27,07,33,7.80
2018,04,27,07,34,7.90
2018,04,27,07,35,7.90
2018,04,27,07,36,7.90
2018,04,27,07,37,7.90
2018,04,27,07,38,7.90
2018,04,27,07,39,7.90
2018,04,27,07,40,7.90
2018,04,27,07,41,7.90
2018,04,27,07,42,7.90
2018,04,27,07,43,7.90
2018,04,27,07,44,7.90
2018,04,27,07,45,8.00
2018,04,27,07,46,8.00
2018,04,27,07,47,8.00
2018,04,27,07,48,8.00
2018,04,27,07,49,8.10
2018,04,27,07,50,8.10
2018,04,27,07,51,8.10
2018,04,27,07,52,8.10
2018,04,27,07,53,8.20
2018,04,27,07,54,8.20
2018,04,27,07,55,8.20
2018,04,27,07,56,8.20
2018,04,27,07,57,8.20
2018,04,27,07,58,8.20
2018,04,27,07,59,8.20
2018,04,27,08,00,8.30
2018,04,27,08,01,8.30
2018,04,27,08,02,8.30
2018,04,27,08,03,8.30
2018,04,27,08,04,8.40
2018,04,27,08,05,8.40
2018,04,27,08,06,8.40
2018,04,27,08,07,8.40
2018,04,27,08,08,8.40
2018,04,27,08,09,8.40
2018,04,27,08,10,8.40
2018,04,27,08,11,8.50
2018,04,27,08,12,8.50
2018,04,27,08,13,8.50
2018,04,27,08,14,8.60
2018,04,27,08,15,8.60
2018,04,27,08,16,8.60
2018,04,27,08,17,8.60
2018,04,27,08,18,8.60
2018,04,27,08,19,8.70
2018,04,27,08,20,8.70
2018,04,27,08,21,8.70
2018,04,27,08,22,8.70
2018,04,27,08,23,8.70
2018,04,27,08,24,8.70
2018,04,27,08,25,8.70
2018,04,27,08,26,8.70
2018,04,27,08,27,8.70
2018,04,27,08,28,8.70
2018,04,27,08,29,8.80
2018,04,27,08,30,8.80
2018,04,27,08,31,8.80
2018,04,27,08,32,8.90
2018,04,27,08,33,8.90
2018,04,27,08,34,8.90
2018,04,27,08,35,8.90
2018,04,27,08,36,9.00
2018,04,27,08,37,9.00
2018,04,27,08,38,9.10
2018,04,27,08,39,9.10
2018,04,27,08,40,9.20
2018,04,27,08,41,9.20
2018,04,27,08,42,9.20
2018,04,27,08,43,9.20
2018,04,27,08,44,9.20
2018,04,27,08,45,9.20
2018,04,27,08,46,9.20
2018,04,27,08,47,9.30
2018,04,27,08,48,9.30
2018,04,27,08,49,9.30
2018,04,27,08,50,9.30
2018,04,27,08,51,9.40
2018,04,27,08,52,9.50
2018,04,27,08,53,9.50
2018,04,27,08,54,9.60
2018,04,27,08,55,9.60
2018,04,27,08,56,9.70
2018,04,27,08,57,9.70
2018,04,27,08,58,9.70
2018,04,27,08,59,9.80
2018,04,27,09,00,9.80
2018,04,27,09,01,9.80
2018,04,27,09,02,9.80
2018,04,27,09,03,9.80
2018,04,27,09,04,9.80
2018,04,27,09,05,9.80
2018,04,27,09,06,9.90
2018,04,27,09,07,9.90
2018,04,27,09,08,10.00
2018,04,27,09,09,10.10
2018,04,27,09,10,10.10
2018,04,27,09,11,10.20
2018,04,27,09,12,10.20
2018,04,27,09,13,10.20
2018,04,27,09,14,10.20
2018,04,27,09,15,10.30
2018,04,27,09,16,10.30
2018,04,27,09,17,10.40
2018,04,27,09,18,10.50
2018,04,27,09,19,10.50
2018,04,27,09,20,10.60
2018,04,27,09,21,10.70
2018,04,27,09,22,10.70
2018,04,27,09,23,10.70
2018,04,27,09,24,10.80
2018,04,27,09,25,10.80
2018,04,27,09,26,10.80
2018,04,27,09,27,10.90
2018,04,27,09,28,10.90
2018,04,27,09,29,11.00
2018,04,27,09,30,11.00
2018,04,27,09,31,11.10
2018,04,27,09,32,11.10
2018,04,27,09,33,11.20
2018,04,27,09,34,11.30
2018,04,27,09,35,11.30
2018,04,27,09,36,11.40
2018,04,27,09,37,11.50
2018,04,27,09,38,11.60
2018,04,27,09,39,11.60
2018,04,27,09,40,11.70
2018,04,27,09,41,11.80
2018,04,27,09,42,11.80
2018,04,27,09,43,11.90
2018,04,27,09,44,12.00
2018,04,27,09,45,12.10
2018,04,27,09,46,12.30
2018,04,27,09,47,12.50
2018,04,27,09,48,12.50
2018,04,27,09,49,12.60
2018,04,27,09,50,12.60
2018,04,27,09,51,12.60
2018,04,27,09,52,12.70
2018,04,27,09,53,12.80
2018,04,27,09,54,12.90
2018,04,27,09,55,13.10
2018,04,27,09,56,13.20
2018,04,27,09,57,13.40
2018,04,27,09,58,13.50
2018,04,27,09,59,13.50
2018,04,27,10,00,13.60
2018,04,27,10,01,13.70
2018,04,27,10,02,13.70
2018,04,27,10,03,13.70
2018,04,27,10,04,13.70
2018,04,27,10,05,13.70
2018,04,27,10,06,13.80
2018,04,27,10,07,13.80
2018,04,27,10,08,13.80
2018,04,27,10,09,13.80
2018,04,27,10,10,13.80
2018,04,27,10,11,13.80
2018,04,27,10,12,13.80
2018,04,27,10,13,13.80
2018,04,27,10,14,13.80
2018,04,27,10,15,13.70
2018,04,27,10,16,13.80
2018,04,27,10,17,13.80
2018,04,27,10,18,13.80
2018,04,27,10,19,13.80
2018,04,27,10,20,13.80
2018,04,27,10,21,13.80
2018,04,27,10,22,13.80
2018,04,27,10,23,13.80
2018,04,27,10,24,13.80
2018,04,27,10,25,13.80
2018,04,27,10,26,13.80
2018,04,27,10,27,13.90
2018,04,27,10,28,13.90
2018,04,27,10,29,14.00
2018,04,27,10,30,14.00
2018,04,27,10,31,14.10
2018,04,27,10,32,14.10
2018,04,27,10,33,14.10
2018,04,27,10,34,14.20
2018,04,27,10,35,14.20
2018,04,27,10,36,14.30
2018,04,27,10,37,14.40
2018,04,27,10,38,14.50
2018,04,27,10,39,14.60
2018,04,27,10,40,14.70
2018,04,27,10,41,14.70
2018,04,27,10,42,14.70
2018,04,27,10,43,14.70
2018,04,27,10,44,14.70
2018,04,27,10,45,14.70
2018,04,27,10,46,14.80
2018,04,27,10,47,14.80
2018,04,27,10,48,14.90
2018,04,27,10,49,15.00
2018,04,27,10,50,15.10
2018,04,27,10,51,15.10
2018,04,27,10,52,15.10
2018,04,27,10,53,15.10
2018,04,27,10,54,15.10
2018,04,27,10,55,15.10
2018,04,27,10,56,15.10
2018,04,27,10,57,15.10
2018,04,27,10,58,15.10
2018,04,27,10,59,15.20
2018,04,27,11,00,15.20
2018,04,27,11,01,15.30
2018,04,27,11,02,15.30
2018,04,27,11,03,15.40
2018,04,27,11,04,15.50
2018,04,27,11,05,15.60
2018,04,27,11,06,15.70
2018,04,27,11,07,15.70
2018,04,27,11,08,15.60
2018,04,27,11,09,15.70
2018,04,27,11,10,15.70
2018,04,27,11,11,15.70
2018,04,27,11,12,15.80
2018,04,27,11,13,15.90
2018,04,27,11,14,16.10
2018,04,27,11,15,16.10
2018,04,27,11,16,16.00
2018,04,27,11,17,15.90
2018,04,27,11,18,15.80
2018,04,27,11,19,15.70
2018,04,27,11,20,15.70
2018,04,27,11,21,15.70
2018,04,27,11,22,15.70
2018,04,27,11,23,15.80
2018,04,27,11,24,15.80
2018,04,27,11,25,15.90
2018,04,27,11,26,15.90
2018,04,27,11,27,15.90
2018,04,27,11,28,15.90
2018,04,27,11,29,15.80
2018,04,27,11,30,15.80
2018,04,27,11,31,15.90
2018,04,27,11,32,15.90
2018,04,27,11,33,15.90
2018,04,27,11,34,15.90
2018,04,27,11,35,15.90
2018,04,27,11,36,15.90
2018,04,27,11,37,15.90
2018,04,27,11,38,15.80
2018,04,27,11,39,15.80
2018,04,27,11,40,15.80
2018,04,27,11,41,15.70
2018,04,27,11,42,15.70
2018,04,27,11,43,15.60
2018,04,27,11,44,15.60
2018,04,27,11,45,15.60
2018,04,27,11,46,15.70
2018,04,27,11,47,15.80
2018,04,27,11,48,15.80
2018,04,27,11,49,15.90
2018,04,27,11,50,15.90
2018,04,27,11,51,16.00
2018,04,27,11,52,16.00
2018,04,27,11,53,16.00
2018,04,27,11,54,16.10
2018,04,27,11,55,16.10
2018,04,27,11,56,16.20
2018,04,27,11,57,16.20
2018,04,27,11,58,16.10
2018,04,27,11,59,16.20
2018,04,27,12,00,16.20
2018,04,27,12,01,16.30
2018,04,27,12,02,16.30
2018,04,27,12,03,16.30
2018,04,27,12,04,16.20
2018,04,27,12,05,16.20
2018,04,27,12,06,16.20
2018,04,27,12,07,16.20
2018,04,27,12,08,16.20
2018,04,27,12,09,16.30
2018,04,27,12,10,16.40
2018,04,27,12,11,16.50
2018,04,27,12,12,16.50
2018,04,27,12,13,16.60
2018,04,27,12,14,16.60
2018,04,27,12,15,16.60
2018,04,27,12,16,16.60
2018,04,27,12,17,16.70
2018,04,27,12,18,16.70
2018,04,27,12,19,16.80
2018,04,27,12,20,16.90
2018,04,27,12,21,17.00
2018,04,27,12,22,17.00
2018,04,27,12,23,17.10
2018,04,27,12,24,17.20
2018,04,27,12,25,17.10
2018,04,27,12,26,17.20
2018,04,27,12,27,17.20
2018,04,27,12,28,17.20
2018,04,27,12,29,17.20
2018,04,27,12,30,17.20
2018,04,27,12,31,17.20
2018,04,27,12,32,17.20
2018,04,27,12,33,17.20
2018,04,27,12,34,17.10
2018,04,27,12,35,16.90
2018,04,27,12,36,16.80
2018,04,27,12,37,16.60
2018,04,27,12,38,16.60
2018,04,27,12,39,16.50
2018,04,27,12,40,16.40
2018,04,27,12,41,16.40
2018,04,27,12,42,16.40
2018,04,27,12,43,16.40
2018,04,27,12,44,16.40
2018,04,27,12,45,16.40
2018,04,27,12,46,16.40
2018,04,27,12,47,16.30
2018,04,27,12,48,16.30
2018,04,27,12,49,16.30
2018,04,27,12,50,16.30
2018,04,27,12,51,16.30
2018,04,27,12,52,16.30
2018,04,27,12,53,16.30
2018,04,27,12,54,16.30
2018,04,27,12,55,16.30
2018,04,27,12,56,16.30
2018,04,27,12,57,16.30
2018,04,27,12,58,16.30
2018,04,27,12,59,16.40
2018,04,27,13,00,16.40
2018,04,27,13,01,16.40
2018,04,27,13,02,16.40
2018,04,27,13,03,16.40
2018,04,27,13,04,16.40
2018,04,27,13,05,16.30
2018,04,27,13,06,16.40
2018,04,27,13,07,16.50
2018,04,27,13,08,16.60
2018,04,27,13,09,16.70
2018,04,27,13,10,16.80
2018,04,27,13,11,16.80
2018,04,27,13,12,16.80
2018,04,27,13,13,16.90
2018,04,27,13,14,17.00
2018,04,27,13,15,17.00
2018,04,27,13,16,17.10
2018,04,27,13,17,17.00
2018,04,27,13,18,17.00
2018,04,27,13,19,17.10
2018,04,27,13,20,17.20
2018,04,27,13,21,17.30
2018,04,27,13,22,17.50
2018,04,27,13,23,17.60
2018,04,27,13,24,17.60
2018,04,27,13,25,17.70
2018,04,27,13,26,17.70
2018,04,27,13,27,17.60
2018,04,27,13,28,17.60
2018,04,27,13,29,17.50
2018,04,27,13,30,17.40
2018,04,27,13,31,17.30
2018,04,27,13,32,17.30
2018,04,27,13,33,17.20
2018,04,27,13,34,17.20
2018,04,27,13,35,17.30
2018,04,27,13,36,17.30
2018,04,27,13,37,17.30
2018,04,27,13,38,17.30
2018,04,27,13,39,17.20
2018,04,27,13,40,17.20
2018,04,27,13,41,17.20
2018,04,27,13,42,17.20
2018,04,27,13,43,17.20
2018,04,27,13,44,17.20
2018,04,27,13,45,17.10
2018,04,27,13,46,17.00
2018,04,27,13,47,16.90
2018,04,27,13,48,16.80
2018,04,27,13,49,16.80
2018,04,27,13,50,16.80
2018,04,27,13,51,16.80
2018,04,27,13,52,16.80
2018,04,27,13,53,16.70
2018,04,27,13,54,16.70
2018,04,27,13,55,16.80
2018,04,27,13,56,16.70
2018,04,27,13,57,16.70
2018,04,27,13,58,16.70
2018,04,27,13,59,16.50
2018,04,27,14,00,16.30
2018,04,27,14,01,16.20
2018,04,27,14,02,16.10
2018,04,27,14,03,15.90
2018,04,27,14,04,15.70
2018,04,27,14,05,15.60
2018,04,27,14,06,15.50
2018,04,27,14,07,15.50
2018,04,27,14,08,15.40
2018,04,27,14,09,15.50
2018,04,27,14,10,15.60
2018,04,27,14,11,15.60
2018,04,27,14,12,15.60
2018,04,27,14,13,15.60
2018,04,27,14,14,15.60
2018,04,27,14,15,15.50
2018,04,27,14,16,15.40
2018,04,27,14,17,15.40
2018,04,27,14,18,15.40
2018,04,27,14,19,15.50
2018,04,27,14,20,15.70
2018,04,27,14,21,15.80
2018,04,27,14,22,15.80
2018,04,27,14,23,15.80
2018,04,27,14,24,15.70
2018,04,27,14,25,15.70
2018,04,27,14,26,15.60
2018,04,27,14,27,15.40
2018,04,27,14,28,15.20
2018,04,27,14,29,15.00
2018,04,27,14,30,14.80
2018,04,27,14,31,14.70
2018,04,27,14,32,14.60
2018,04,27,14,33,14.60
2018,04,27,14,34,14.50
2018,04,27,14,35,14.50
2018,04,27,14,36,14.50
2018,04,27,14,37,14.50
2018,04,27,14,38,14.50
2018,04,27,14,39,14.30
2018,04,27,14,40,14.30
2018,04,27,14,41,14.20
2018,04,27,14,42,14.10
2018,04,27,14,43,14.10
2018,04,27,14,44,14.10
2018,04,27,14,45,14.20
2018,04,27,14,46,14.20
2018,04,27,14,47,14.20
2018,04,27,14,48,14.10
2018,04,27,14,49,14.10
2018,04,27,14,50,14.10
2018,04,27,14,51,14.10
2018,04,27,14,52,14.10
2018,04,27,14,53,14.20
2018,04,27,14,54,14.20
2018,04,27,14,55,14.20
2018,04,27,14,56,14.20
2018,04,27,14,57,14.30
2018,04,27,14,58,14.30
2018,04,27,14,59,14.30
2018,04,27,15,00,14.30
2018,04,27,15,01,14.30
2018,04,27,15,02,14.30
2018,04,27,15,03,14.30
2018,04,27,15,04,14.30
2018,04,27,15,05,14.30
2018,04,27,15,06,14.30
2018,04,27,15,07,14.30
2018,04,27,15,08,14.40
2018,04,27,15,09,14.40
2018,04,27,15,10,14.40
2018,04,27,15,11,14.40
2018,04,27,15,12,14.40
2018,04,27,15,13,14.30
2018,04,27,15,14,14.20
2018,04,27,15,15,14.20
2018,04,27,15,16,14.10
2018,04,27,15,17,14.20
2018,04,27,15,18,14.10
2018,04,27,15,19,14.10
2018,04,27,15,20,14.10
2018,04,27,15,21,14.10
2018,04,27,15,22,14.10
2018,04,27,15,23,14.10
2018,04,27,15,24,14.20
2018,04,27,15,25,14.20
2018,04,27,15,26,14.10
2018,04,27,15,27,14.10
2018,04,27,15,28,14.10
2018,04,27,15,29,14.20
2018,04,27,15,30,14.20
2018,04,27,15,31,14.20
2018,04,27,15,32,14.20
2018,04,27,15,33,14.20
2018,04,27,15,34,14.20
2018,04,27,15,35,14.30
2018,04,27,15,36,14.30
2018,04,27,15,37,14.40
2018,04,27,15,38,14.40
2018,04,27,15,39,14.30
2018,04,27,15,40,14.30
2018,04,27,15,41,14.30
2018,04,27,15,42,14.30
2018,04,27,15,43,14.20
2018,04,27,15,44,14.20
2018,04,27,15,45,14.30
2018,04,27,15,46,14.30
2018,04,27,15,47,14.30
2018,04,27,15,48,14.30
2018,04,27,15,49,14.30
2018,04,27,15,50,14.30
2018,04,27,15,51,14.20
2018,04,27,15,52,14.20
2018,04,27,15,53,14.20
2018,04,27,15,54,14.30
2018,04,27,15,55,14.30
2018,04,27,15,56,14.30
2018,04,27,15,57,14.30
2018,04,27,15,58,14.30
2018,04,27,15,59,14.40
2018,04,27,16,00,14.30
2018,04,27,16,01,14.40
2018,04,27,16,02,14.40
2018,04,27,16,03,14.40
2018,04,27,16,04,14.40
2018,04,27,16,05,14.40
2018,04,27,16,06,14.40
2018,04,27,16,07,14.40
2018,04,27,16,08,14.50
2018,04,27,16,09,14.50
2018,04,27,16,10,14.50
2018,04,27,16,11,14.50
2018,04,27,16,12,14.50
2018,04,27,16,13,14.50
2018,04,27,16,14,14.50
2018,04,27,16,15,14.40
2018,04,27,16,16,14.40
2018,04,27,16,17,14.40
2018,04,27,16,18,14.50
2018,04,27,16,19,14.50
2018,04,27,16,20,14.50
2018,04,27,16,21,14.50
2018,04,27,16,22,14.60
2018,04,27,16,23,14.60
2018,04,27,16,24,14.70
2018,04,27,16,25,14.80
2018,04,27,16,26,14.80
2018,04,27,16,27,14.80
2018,04,27,16,28,14.80
2018,04,27,16,29,14.70
2018,04,27,16,30,14.70
2018,04,27,16,31,14.70
2018,04,27,16,32,14.70
2018,04,27,16,33,14.70
2018,04,27,16,34,14.60
2018,04,27,16,35,14.70
2018,04,27,16,36,14.60
2018,04,27,16,37,14.50
2018,04,27,16,38,14.40
2018,04,27,16,39,14.30
2018,04,27,16,40,14.30
2018,04,27,16,41,14.20
2018,04,27,16,42,14.20
2018,04,27,16,43,14.20
2018,04,27,16,44,14.20
2018,04,27,16,45,14.20
2018,04,27,16,46,14.20
2018,04,27,16,47,14.20
2018,04,27,16,48,14.20
2018,04,27,16,49,14.20
2018,04,27,16,50,14.10
2018,04,27,16,51,14.10
2018,04,27,16,52,14.10
2018,04,27,16,53,14.10
2018,04,27,16,54,14.10
2018,04,27,16,55,14.10
2018,04,27,16,56,14.10
2018,04,27,16,57,14.10
2018,04,27,16,58,14.10
2018,04,27,16,59,14.00
2018,04,27,17,00,14.00
2018,04,27,17,01,13.90
2018,04,27,17,02,13.80
2018,04,27,17,03,13.90
2018,04,27,17,04,13.90
2018,04,27,17,05,13.90
2018,04,27,17,06,13.90
2018,04,27,17,07,13.90
2018,04,27,17,08,13.90
2018,04,27,17,09,13.80
2018,04,27,17,10,13.80
2018,04,27,17,11,13.90
2018,04,27,17,12,13.80
2018,04,27,17,13,13.80
2018,04,27,17,14,13.80
2018,04,27,17,15,13.80
2018,04,27,17,16,13.80
2018,04,27,17,17,13.70
2018,04,27,17,18,13.60
2018,04,27,17,19,13.60
2018,04,27,17,20,13.60
2018,04,27,17,21,13.60
2018,04,27,17,22,13.60
2018,04,27,17,23,13.50
2018,04,27,17,24,13.50
2018,04,27,17,25,13.40
2018,04,27,17,26,13.40
2018,04,27,17,27,13.40
2018,04,27,17,28,13.40
2018,04,27,17,29,13.40
2018,04,27,17,30,13.40
2018,04,27,17,31,13.40
2018,04,27,17,32,13.40
2018,04,27,17,33,13.40
2018,04,27,17,34,13.40
2018,04,27,17,35,13.40
2018,04,27,17,36,13.50
2018,04,27,17,37,13.50
2018,04,27,17,38,13.40
2018,04,27,17,39,13.40
2018,04,27,17,40,13.40
2018,04,27,17,41,13.50
2018,04,27,17,42,13.50
2018,04,27,17,43,13.60